Jerez de la Frontera, Spain

5:21 PM CEST on April 30, 2017 (GMT +0200)
Jerez

Weather History for LEJR - June, 2013

Change the Weather History Date:

Friday, June 28, 2013

  Actual Average Record
Temperature  
Mean Temperature 77 °F -  
Max Temperature 93 °F 88 °F 103 °F (2015)
Min Temperature 61 °F 62 °F 55 °F (2005)
Cooling Degree Days 12    
Growing Degree Days 27 (Base 50)    
Moisture  
Dew Point 49 °F    
Average Humidity 38    
Maximum Humidity 77    
Minimum Humidity 12    
Precipitation  
Precipitation 0.00 in 0.00 in - ()
Sea Level Pressure  
Sea Level Pressure 30.07 in    
Wind  
Wind Speed 5 mph ()    
Max Wind Speed 15 mph    
Max Gust Speed -    
Visibility 19.0 miles    
Events      
Averages and records for this station are not official NWS values.
T = Trace of Precipitation, MM = Missing Value Source: Averaged Metar Reports

Daily Weather History Graph

Daily Weather History Graph

Search for Another Location

Airport or City:

Trip Planner

Search our weather history database for the weather conditions in past years. The results will help you decide how hot, cold, wet, or windy it might be!

Date:

Astronomy

Jun. 28, 2013 Rise Set
Actual Time 7:07 AM CEST 9:47 PM CEST
Civil Twilight 6:37 AM CEST 10:17 PM CEST
Nautical Twilight 5:59 AM CEST 10:55 PM CEST
Astronomical Twilight 5:16 AM CEST 11:38 PM CEST
Moon 12:45 AM CEST (6/28) 12:50 PM CEST (6/28)
Length of Visible Light 15h 40m
Length of Day
14h 39m
Waning Gibbous, 69% of the Moon is Illuminated
Jun 28
Waning Gibbous
Jun 30
Last Quarter
Jul 8
New
Jul 16
First Quarter
Jul 22
Full

Hourly Weather History & Observations

Time (CEST) Temp. Dew Point Humidity Pressure Visibility Wind Dir Wind Speed Gust Speed Precip Events Conditions
2:00 AM 68 °F 53 °F 47% 30.08 in 19 mi SE 3.5 mph - -  
5:00 AM 62.6 °F 53.6 °F 72% 30.06 in - Variable 2.3 mph - N/A   Clear
5:30 AM 62.6 °F 53.6 °F 72% 30.06 in - NE 4.6 mph - N/A   Clear
6:00 AM 64.4 °F 51.8 °F 64% 30.06 in - NNE 4.6 mph - N/A   Clear
6:30 AM 62.6 °F 51.8 °F 68% 30.06 in - Variable 2.3 mph - N/A   Clear
7:00 AM 62.6 °F 51.8 °F 68% 30.06 in - North 3.5 mph - N/A   Clear
7:30 AM 60.8 °F 53.6 °F 77% 30.09 in - Calm Calm - N/A   Clear
8:00 AM 64 °F 54 °F 60% 30.09 in 25 mi Calm Calm - -  
8:00 AM 64.4 °F 53.6 °F 68% 30.09 in - Calm Calm - N/A   Clear
8:30 AM 68.0 °F 53.6 °F 60% 30.09 in - Calm Calm - N/A   Clear
9:00 AM 69.8 °F 55.4 °F 60% 30.09 in - Variable 1.2 mph - N/A   Clear
9:30 AM 73.4 °F 51.8 °F 47% 30.09 in - Variable 2.3 mph - N/A   Clear
10:00 AM 77.0 °F 51.8 °F 41% 30.09 in - Variable 2.3 mph - N/A   Clear
10:30 AM 78.8 °F 48.2 °F 34% 30.09 in - Variable 2.3 mph - N/A   Clear
11:00 AM 80.6 °F 46.4 °F 30% 30.09 in - Variable 2.3 mph - N/A   Clear
11:30 AM 82.4 °F 44.6 °F 26% 30.09 in - Variable 2.3 mph - N/A   Clear
12:00 PM 86.0 °F 46.4 °F 25% 30.09 in - SE 9.2 mph - N/A   Clear
12:30 PM 86.0 °F 46.4 °F 25% 30.09 in - ESE 10.4 mph - N/A   Clear
1:00 PM 87.8 °F 44.6 °F 22% 30.09 in - ESE 10.4 mph - N/A   Clear
1:30 PM 87.8 °F 44.6 °F 22% 30.09 in - East 10.4 mph - N/A   Clear
2:00 PM 90 °F 45 °F 12% 30.10 in 28 mi ESE 6.9 mph - -  
2:00 PM 89.6 °F 46.4 °F 22% 30.09 in - SE 6.9 mph - N/A   Clear
2:30 PM 89.6 °F 42.8 °F 20% 30.09 in - East 8.1 mph - N/A   Clear
3:00 PM 89.6 °F 48.2 °F 24% 30.09 in - SE 8.1 mph - N/A   Clear
3:30 PM 89.6 °F 46.4 °F 22% 30.06 in - East 9.2 mph - N/A   Clear
4:00 PM 89.6 °F 48.2 °F 24% 30.06 in - East 6.9 mph - N/A   Clear
4:30 PM 91.4 °F 46.4 °F 21% 30.06 in - East 4.6 mph - N/A   Clear
5:00 PM 89.6 °F 48.2 °F 24% 30.06 in - SSE 10.4 mph - N/A   Clear
5:30 PM 89.6 °F 48.2 °F 24% 30.06 in - SSE 9.2 mph - N/A   Clear
6:00 PM 87.8 °F 50.0 °F 27% 30.06 in - SSE 11.5 mph - N/A   Clear
6:30 PM 87.8 °F 48.2 °F 25% 30.06 in - South 11.5 mph - N/A   Clear
7:00 PM 86.0 °F 44.6 °F 23% 30.06 in - SSE 13.8 mph - N/A   Clear
7:30 PM 86.0 °F 46.4 °F 25% 30.06 in - SSE 10.4 mph - N/A   Clear
8:00 PM 85 °F 46 °F 16% 30.06 in 28 mi SSE 11.5 mph - -  
8:00 PM 84.2 °F 46.4 °F 27% 30.06 in - SSE 9.2 mph - N/A   Clear
8:30 PM 80.6 °F 48.2 °F 32% 30.06 in - SSE 13.8 mph - N/A   Clear
9:00 PM 78.8 °F 46.4 °F 32% 30.06 in - SE 15.0 mph - N/A   Clear
9:30 PM 75.2 °F 46.4 °F 36% 30.06 in - SSE 9.2 mph - N/A   Clear
10:00 PM 73.4 °F 48.2 °F 41% 30.06 in - SSE 5.8 mph - N/A   Clear
10:30 PM 71.6 °F 48.2 °F 43% 30.06 in - SSE 4.6 mph - N/A   Clear
11:00 PM 71.6 °F 48.2 °F 43% 30.09 in - SSE 3.5 mph - N/A   Clear